Location: Betz
(49.1556°N, 2.9558°E)
Time: 02:05:03
(UTC+00:00)

Meteor 2-5 Rocket - Pass Details

Date: 18 September 2019
Orbit: 834 x 911 km, 81.2° (Epoch: 19 October)

Event Time Altitude Azimuth Distance (km) Brightness Sun altitude
Rises 19:46:59 0° 348° (NNW) 3,479 7.4 -18.4°
Reaches altitude 10° 19:49:25 10° 350° (N) 2,548 6.7 -18.7°
Maximum altitude 19:55:14 78° 77° (ENE) 916 3.7 -19.6°
Enters shadow 19:58:43 26° 161° (SSE) 1,697 4.9 -20.1°
